TimePDT,TemperatureF,Dew PointF,Humidity,Sea Level PressureIn,VisibilityMPH,Wind Direction,Wind SpeedMPH,Gust SpeedMPH,PrecipitationIn,Events,Conditions,WindDirDegrees,DateUTC
12:53 AM,52.0,46.0,80,30.01,10.0,South,3.5,-,N/A,,Overcast,170,2014-05-05 07:53:00
1:53 AM,52.0,46.0,80,30.01,10.0,Calm,Calm,-,0.02,Rain,Light Rain,0,2014-05-05 08:53:00
2:53 AM,51.1,46.0,83,30.01,8.0,South,3.5,-,0.01,Rain,Light Rain,170,2014-05-05 09:53:00
3:53 AM,50.0,46.0,86,30.01,10.0,Calm,Calm,-,0.00,,Mostly Cloudy,0,2014-05-05 10:53:00
4:53 AM,50.0,46.0,86,30.02,10.0,Calm,Calm,-,N/A,,Overcast,0,2014-05-05 11:53:00
5:53 AM,48.9,45.0,86,30.03,10.0,SSE,3.5,-,0.01,,Scattered Clouds,160,2014-05-05 12:53:00
6:53 AM,48.9,45.0,86,30.04,10.0,Calm,Calm,-,N/A,,Overcast,0,2014-05-05 13:53:00
7:53 AM,50.0,45.0,83,30.05,10.0,Calm,Calm,-,N/A,,Overcast,0,2014-05-05 14:53:00
8:53 AM,53.1,45.0,74,30.05,10.0,SSE,5.8,-,N/A,,Mostly Cloudy,160,2014-05-05 15:53:00
9:30 AM,53.1,44.1,71,30.05,10.0,West,5.8,-,N/A,,Overcast,260,2014-05-05 16:30:00
9:41 AM,53.1,43.0,69,30.05,10.0,Calm,Calm,-,N/A,,Mostly Cloudy,0,2014-05-05 16:41:00
9:53 AM,55.9,43.0,62,30.06,10.0,Variable,4.6,-,N/A,,Mostly Cloudy,0,2014-05-05 16:53:00
10:03 AM,55.9,42.1,60,30.05,10.0,Variable,5.8,-,N/A,,Mostly Cloudy,0,2014-05-05 17:03:00
11:53 AM,53.1,41.0,64,30.07,10.0,WNW,9.2,-,0.00,Rain,Light Rain,300,2014-05-05 18:53:00
12:53 PM,55.9,39.0,53,30.06,10.0,ESE,4.6,-,0.01,,Scattered Clouds,110,2014-05-05 19:53:00
1:53 PM,59.0,37.9,46,30.05,10.0,NW,9.2,-,N/A,,Partly Cloudy,320,2014-05-05 20:53:00
2:53 PM,57.0,45.0,64,30.05,10.0,South,3.5,-,0.04,,Mostly Cloudy,180,2014-05-05 21:53:00
3:53 PM,55.9,44.1,64,30.04,6.0,SW,5.8,-,0.01,Rain,Light Rain,230,2014-05-05 22:53:00
4:53 PM,57.9,41.0,53,30.03,10.0,Variable,4.6,-,0.00,,Overcast,0,2014-05-05 23:53:00
5:53 PM,55.9,45.0,67,30.04,10.0,ESE,6.9,-,0.00,,Mostly Cloudy,120,2014-05-06 00:53:00
6:53 PM,55.9,45.0,67,30.04,10.0,South,3.5,-,0.00,,Overcast,180,2014-05-06 01:53:00
7:53 PM,57.0,37.9,49,30.05,10.0,WNW,11.5,18.4,N/A,,Overcast,300,2014-05-06 02:53:00
9:53 PM,52.0,37.9,59,30.10,10.0,Variable,4.6,-,N/A,,Clear,0,2014-05-06 04:53:00
10:53 PM,50.0,39.9,68,30.11,10.0,NNE,3.5,-,N/A,,Mostly Cloudy,30,2014-05-06 05:53:00
11:53 PM,46.9,39.9,77,30.11,10.0,Calm,Calm,-,N/A,,Mostly Cloudy,0,2014-05-06 06:53:00